• In Belarus
  • List of Countries
  • For 7 days
  • Water Temperature
  • Satellite Maps
  • Weather Map
  • Weather Widgets
  • user-avatar
    Login

    Hourly Weather Kolobovo

    Today, 20 April, Friday

    Time Temperature Precipitation Wind Pressure Humidity
    00:00 +5°C° 0 mm 3 mps 742 mmHg 87%
    01:00 +4°C° 0 mm 3 mps 742 mmHg 90%
    02:00 +4°C° 0 mm 3 mps 742 mmHg 93%
    03:00 +4°C° 0 mm 3 mps 742 mmHg 94%
    04:00 +4°C° 0 mm 3 mps 743 mmHg 96%
    05:00 +4°C° 0 mm 3 mps 743 mmHg 97%
    06:00 +4°C° 0 mm 3 mps 743 mmHg 94%
    07:00 +5°C° 0 mm 3 mps 743 mmHg 92%
    08:00 +6°C° 0 mm 2 mps 744 mmHg 90%
    09:00 +7°C° 0 mm 2 mps 744 mmHg 86%
    10:00 +8°C° 0 mm 2 mps 744 mmHg 83%
    11:00 +9°C° 0 mm 2 mps 744 mmHg 79%
    12:00 +10°C° 0.1 mm 2 mps 743 mmHg 74%
    13:00 +12°C° 0.1 mm 2 mps 743 mmHg 69%
    14:00 +12°C° 0.1 mm 2 mps 743 mmHg 65%
    15:00 +13°C° 0 mm 2 mps 743 mmHg 64%
    16:00 +13°C° 0 mm 2 mps 742 mmHg 64%
    17:00 +13°C° 0 mm 2 mps 741 mmHg 63%
    18:00 +10°C° 0 mm 2 mps 741 mmHg 69%
    19:00 +9°C° 0 mm 2 mps 740 mmHg 76%
    20:00 +8°C° 0 mm 2 mps 739 mmHg 82%
    21:00 +8°C° 0 mm 3 mps 739 mmHg 81%
    22:00 +8°C° 0 mm 3 mps 738 mmHg 80%
    23:00 +7°C° 0 mm 4 mps 737 mmHg 78%

    Tomorrow, 21 April, Saturday

    Time Temperature Precipitation Wind Pressure Humidity
    00:00 +8°C° 0 mm 4 mps 736 mmHg 80%
    01:00 +8°C° 0 mm 4 mps 735 mmHg 82%
    02:00 +8°C° 0 mm 4 mps 734 mmHg 84%
    03:00 +8°C° 0 mm 4 mps 733 mmHg 87%
    04:00 +8°C° 0 mm 4 mps 732 mmHg 89%
    05:00 +8°C° 0 mm 5 mps 731 mmHg 92%
    06:00 +9°C° 0 mm 5 mps 730 mmHg 88%
    07:00 +9°C° 0 mm 5 mps 729 mmHg 84%
    08:00 +10°C° 0 mm 6 mps 728 mmHg 81%
    09:00 +10°C° 0.2 mm 6 mps 727 mmHg 82%
    10:00 +10°C° 0.2 mm 6 mps 726 mmHg 83%
    11:00 +10°C° 0.2 mm 6 mps 725 mmHg 85%
    12:00 +10°C° 0.4 mm 7 mps 725 mmHg 80%
    13:00 +10°C° 0.4 mm 8 mps 725 mmHg 75%
    14:00 +8°C° 0.4 mm 9 mps 725 mmHg 70%
    15:00 +7°C° 0.1 mm 9 mps 725 mmHg 70%
    16:00 +6°C° 0.1 mm 9 mps 726 mmHg 70%
    17:00 +5°C° 0.1 mm 8 mps 727 mmHg 70%
    18:00 +5°C° 0 mm 8 mps 727 mmHg 71%
    19:00 +5°C° 0 mm 7 mps 727 mmHg 72%
    20:00 +4°C° 0 mm 7 mps 728 mmHg 73%
    21:00 +4°C° 0 mm 7 mps 728 mmHg 75%
    22:00 +3°C° 0 mm 6 mps 729 mmHg 78%
    23:00 +2°C° 0 mm 6 mps 729 mmHg 80%

    Day after tomorrow, 22 April, Sunday

    Time Temperature Precipitation Wind Pressure Humidity
    00:00 +2°C° 0 mm 5 mps 730 mmHg 81%
    01:00 +2°C° 0 mm 5 mps 730 mmHg 82%
    02:00 +1°C° 0 mm 5 mps 730 mmHg 83%
    03:00 +1°C° 0 mm 5 mps 730 mmHg 83%
    04:00 0°C° 0 mm 4 mps 731 mmHg 84%
    05:00 0°C° 0 mm 4 mps 731 mmHg 84%
    06:00 0°C° 0 mm 4 mps 731 mmHg 80%
    07:00 +1°C° 0 mm 4 mps 732 mmHg 76%
    08:00 +1°C° 0 mm 4 mps 732 mmHg 71%
    09:00 +3°C° 0 mm 4 mps 732 mmHg 67%
    10:00 +4°C° 0 mm 4 mps 732 mmHg 63%
    11:00 +5°C° 0 mm 4 mps 733 mmHg 59%
    12:00 +6°C° 0.1 mm 4 mps 733 mmHg 58%
    13:00 +6°C° 0.1 mm 4 mps 733 mmHg 57%
    14:00 +6°C° 0.1 mm 4 mps 733 mmHg 55%
    15:00 +6°C° 0 mm 4 mps 734 mmHg 55%
    16:00 +6°C° 0 mm 4 mps 734 mmHg 54%
    17:00 +6°C° 0 mm 4 mps 734 mmHg 54%
    18:00 +5°C° 0 mm 3 mps 734 mmHg 59%
    19:00 +4°C° 0 mm 2 mps 735 mmHg 64%
    20:00 +3°C° 0 mm 2 mps 735 mmHg 70%
    21:00 +2°C° 0 mm 2 mps 736 mmHg 73%
    22:00 +2°C° 0 mm 1 mps 736 mmHg 76%
    23:00 +1°C° 0 mm 1 mps 736 mmHg 78%

    23 April, Monday

    Time Temperature Precipitation Wind Pressure Humidity
    00:00 +1°C° 0 mm 1 mps 737 mmHg 79%
    01:00 0°C° 0 mm 1 mps 737 mmHg 79%
    02:00 0°C° 0 mm 1 mps 738 mmHg 79%
    03:00 0°C° 0 mm 1 mps 738 mmHg 78%
    04:00 0°C° 0 mm 1 mps 738 mmHg 77%
    05:00 0°C° 0 mm 1 mps 738 mmHg 77%
    06:00 +1°C° 0 mm 1 mps 739 mmHg 68%
    07:00 +2°C° 0 mm 2 mps 739 mmHg 59%
    08:00 +3°C° 0 mm 2 mps 739 mmHg 51%
    09:00 +4°C° 0 mm 2 mps 739 mmHg 46%
    10:00 +5°C° 0 mm 2 mps 739 mmHg 41%
    11:00 +6°C° 0 mm 2 mps 739 mmHg 37%
    12:00 +7°C° 0 mm 2 mps 739 mmHg 36%
    13:00 +7°C° 0 mm 2 mps 739 mmHg 36%
    14:00 +8°C° 0 mm 2 mps 739 mmHg 35%
    15:00 +7°C° 0 mm 2 mps 739 mmHg 37%
    16:00 +7°C° 0 mm 2 mps 739 mmHg 38%
    17:00 +7°C° 0 mm 2 mps 739 mmHg 40%
    18:00 +5°C° 0 mm 2 mps 739 mmHg 46%
    19:00 +5°C° 0 mm 1 mps 739 mmHg 52%
    20:00 +3°C° 0 mm 1 mps 739 mmHg 58%
    21:00 +2°C° 0 mm 1 mps 739 mmHg 61%
    22:00 +2°C° 0 mm 1 mps 739 mmHg 64%
    23:00 +1°C° 0 mm 1 mps 739 mmHg 68%

    24 April, Tuesday

    Time Temperature Precipitation Wind Pressure Humidity
    00:00 0°C° 0 mm 1 mps 739 mmHg 69%
    01:00 0°C° 0 mm 1 mps 738 mmHg 70%
    02:00 -2°C° 0 mm 2 mps 738 mmHg 71%
    03:00 -2°C° 0 mm 2 mps 738 mmHg 71%
    04:00 -2°C° 0 mm 2 mps 738 mmHg 70%
    05:00 -2°C° 0 mm 2 mps 738 mmHg 70%
    06:00 +1°C° 0 mm 2 mps 738 mmHg 61%
    07:00 +2°C° 0 mm 3 mps 738 mmHg 53%
    08:00 +4°C° 0 mm 3 mps 738 mmHg 45%
    09:00 +5°C° 0 mm 4 mps 737 mmHg 43%
    10:00 +6°C° 0 mm 4 mps 737 mmHg 41%
    11:00 +8°C° 0 mm 4 mps 737 mmHg 38%
    12:00 +8°C° 0 mm 4 mps 737 mmHg 39%
    13:00 +10°C° 0 mm 4 mps 736 mmHg 39%
    14:00 +10°C° 0 mm 4 mps 736 mmHg 39%
    15:00 +10°C° 0 mm 3 mps 736 mmHg 40%
    16:00 +10°C° 0 mm 3 mps 735 mmHg 42%
    17:00 +10°C° 0 mm 3 mps 735 mmHg 44%
    18:00 +8°C° 0 mm 3 mps 735 mmHg 50%
    19:00 +5°C° 0 mm 3 mps 734 mmHg 57%
    20:00 +3°C° 0 mm 3 mps 734 mmHg 64%
    21:00 +3°C° 0 mm 3 mps 734 mmHg 65%
    22:00 +3°C° 0 mm 3 mps 734 mmHg 67%
    23:00 +2°C° 0 mm 3 mps 734 mmHg 68%

    25 April, Wednesday

    Time Temperature Precipitation Wind Pressure Humidity
    00:00 +2°C° 0 mm 3 mps 734 mmHg 70%
    01:00 +2°C° 0 mm 3 mps 734 mmHg 73%
    02:00 +2°C° 0 mm 3 mps 734 mmHg 75%
    03:00 +2°C° 0 mm 3 mps 734 mmHg 77%
    04:00 +2°C° 0 mm 3 mps 733 mmHg 79%
    05:00 +2°C° 0 mm 3 mps 733 mmHg 80%
    06:00 +3°C° 0.1 mm 3 mps 733 mmHg 81%
    07:00 +3°C° 0.1 mm 3 mps 734 mmHg 81%
    08:00 +4°C° 0.1 mm 3 mps 734 mmHg 81%
    09:00 +5°C° 0.1 mm 3 mps 734 mmHg 81%
    10:00 +5°C° 0.1 mm 3 mps 734 mmHg 80%
    11:00 +7°C° 0.1 mm 3 mps 734 mmHg 79%
    12:00 +8°C° 0.1 mm 3 mps 734 mmHg 77%
    13:00 +8°C° 0.1 mm 3 mps 733 mmHg 75%
    14:00 +9°C° 0.1 mm 3 mps 733 mmHg 73%
    15:00 +9°C° 0 mm 3 mps 733 mmHg 70%
    16:00 +10°C° 0 mm 3 mps 733 mmHg 67%
    17:00 +10°C° 0 mm 3 mps 732 mmHg 64%
    18:00 +9°C° 0 mm 3 mps 732 mmHg 69%
    19:00 +8°C° 0 mm 3 mps 731 mmHg 73%
    20:00 +7°C° 0 mm 3 mps 731 mmHg 77%
    21:00 +6°C° 1 mm 4 mps 730 mmHg 81%
    22:00 +6°C° 1 mm 5 mps 729 mmHg 84%
    23:00 +6°C° 1 mm 5 mps 728 mmHg 88%
    Show more